| time (UTC) | temp C | wind direction | speed KPH | gust KPH | rain 1hr cm | rain 24hr cm | rain mn cm | humidity % | barometer mb |
| 20260508151553 | 11 | 64 | 8.0 | 14.5 | 0.00 | 2.84 | 0.00 | 81 | 1001.3 |
| 20260508144551 | 11 | 59 | 8.0 | 16.1 | 0.00 | 2.84 | 0.00 | 82 | 1001.4 |
| 20260508143106 | 12 | 58 | 8.0 | 16.1 | 0.00 | 2.84 | 0.00 | 80 | 1001.5 |
| 20260508141550 | 12 | 98 | 8.0 | 16.1 | 0.00 | 2.84 | 0.00 | 82 | 1001.5 |
| 20260508134548 | 12 | 82 | 3.2 | 9.7 | 0.00 | 2.84 | 0.00 | 81 | 1001.6 |
| 20260508133054 | 12 | 68 | 0.0 | 6.4 | 0.00 | 2.84 | 0.00 | 82 | 1001.6 |
| 20260508131548 | 12 | 283 | 1.6 | 8.0 | 0.00 | 2.84 | 0.00 | 80 | 1001.6 |
| 20260508130046 | 12 | 58 | 3.2 | 9.7 | 0.00 | 2.84 | 0.00 | 81 | 1001.6 |
| 20260508124545 | 12 | 15 | 3.2 | 6.4 | 0.00 | 2.84 | 0.00 | 81 | 1001.6 |
| 20260508123045 | 12 | 35 | 4.8 | 12.9 | 0.00 | 2.84 | 0.00 | 80 | 1001.8 |
| 20260508121543 | 12 | 30 | 4.8 | 8.0 | 0.00 | 2.84 | 0.00 | 83 | 1001.6 |
| 20260508120043 | 11 | 30 | 1.6 | 14.5 | 0.00 | 2.84 | 0.00 | 85 | 1001.5 |
| 20260508114536 | 11 | 349 | 4.8 | 9.7 | 0.00 | 2.92 | 0.00 | 87 | 1001.8 |
| 20260508113034 | 11 | 348 | 3.2 | 14.5 | 0.00 | 2.92 | 0.00 | 91 | 1002.0 |
| 20260508111532 | 10 | 338 | 4.8 | 9.7 | 0.00 | 2.92 | 0.00 | 96 | 1002.0 |
| 20260508110029 | 9 | 360 | 3.2 | 8.0 | 0.00 | 2.92 | 0.00 | 99 | 1002.0 |
| 20260508104528 | 8 | 302 | 4.8 | 8.0 | 0.00 | 2.92 | 0.00 | 99 | 1001.9 |
| 20260508103025 | 7 | 333 | 3.2 | 9.7 | 0.00 | 2.92 | 0.00 | 99 | 1001.8 |
| 20260508101524 | 7 | 5 | 0.0 | 0.0 | 0.00 | 2.92 | 0.00 | 99 | 1002.0 |
| 20260508100026 | 7 | 322 | 0.0 | 0.0 | 0.00 | 2.92 | 0.00 | 99 | 1002.2 |
| 20260508094521 | 7 | 340 | 0.0 | 0.0 | 0.00 | 2.92 | 0.00 | 99 | 1002.1 |
| 20260508093021 | 7 | 5 | 0.0 | 0.0 | 0.00 | 2.92 | 0.00 | 99 | 1002.1 |
| 20260508091519 | 7 | 314 | 0.0 | 4.8 | 0.00 | 2.92 | 0.00 | 99 | 1002.0 |
| 20260508090017 | 7 | 18 | 0.0 | 9.7 | 0.00 | 2.92 | 0.00 | 99 | 1002.2 |
| 20260508084514 | 7 | 333 | 4.8 | 8.0 | 0.00 | 2.92 | 0.00 | 99 | 1001.7 |
| 20260508083016 | 8 | 350 | 4.8 | 12.9 | 0.00 | 2.92 | 0.00 | 99 | 1001.7 |
| 20260508081512 | 8 | 302 | 1.6 | 8.0 | 0.00 | 2.92 | 0.00 | 99 | 1002.1 |
| 20260508080025 | 8 | 342 | 1.6 | 16.1 | 0.00 | 2.92 | 0.00 | 99 | 1001.8 |
| 20260508074508 | 8 | 19 | 1.6 | 8.0 | 0.00 | 2.92 | 0.00 | 100 | 1001.5 |
| 20260508073006 | 8 | 347 | 3.2 | 12.9 | 0.00 | 2.92 | 0.00 | 100 | 1001.7 |
| 20260508071505 | 8 | 294 | 3.2 | 8.0 | 0.00 | 2.92 | 0.00 | 100 | 1001.2 |
| 20260508070009 | 8 | 327 | 4.8 | 8.0 | 0.00 | 2.92 | 0.00 | 99 | 1001.5 |
| 20260508064510 | 8 | 14 | 3.2 | 12.9 | 0.00 | 2.92 | 0.00 | 100 | 1001.6 |
| 20260508063101 | 8 | 355 | 0.0 | 6.4 | 0.00 | 2.92 | 0.00 | 99 | 1001.6 |
| 20260508061559 | 8 | 313 | 0.0 | 3.2 | 0.00 | 2.92 | 0.00 | 99 | 1001.6 |
| 20260508060059 | 8 | 298 | 0.0 | 0.0 | 0.00 | 2.92 | 0.00 | 99 | 1001.6 |
| 20260508054600 | 8 | 298 | 0.0 | 0.0 | 0.00 | 2.92 | 0.00 | 99 | 1001.6 |
| 20260508053101 | 9 | 298 | 0.0 | 0.0 | 0.00 | 2.92 | 0.00 | 99 | 1001.6 |
| 20260508051605 | 9 | 290 | 0.0 | 6.4 | 0.00 | 2.92 | 0.00 | 99 | 1001.6 |
| 20260508050103 | 9 | 314 | 1.6 | 9.7 | 0.00 | 2.92 | 0.00 | 99 | 1001.6 |
| 20260508044554 | 9 | 339 | 4.8 | 8.0 | 0.00 | 2.92 | 0.00 | 99 | 1001.5 |
| 20260508043047 | 10 | 351 | 4.8 | 9.7 | 0.00 | 2.92 | 0.00 | 99 | 1001.6 |
| 20260508041545 | 10 | 339 | 1.6 | 9.7 | 0.00 | 2.92 | 0.00 | 100 | 1001.5 |
| 20260508040052 | 10 | 342 | 0.0 | 6.4 | 0.00 | 2.92 | 0.00 | 100 | 1001.9 |
| 20260508034545 | 10 | 23 | 1.6 | 8.0 | 0.00 | 2.92 | 0.00 | 100 | 1001.9 |
| 20260508033043 | 10 | 355 | 0.0 | 0.0 | 0.00 | 2.92 | 0.00 | 100 | 1001.9 |
| 20260508031540 | 10 | 355 | 0.0 | 3.2 | 0.00 | 2.92 | 0.00 | 100 | 1001.9 |
| 20260508030038 | 10 | 355 | 0.0 | 3.2 | 0.00 | 2.92 | 0.00 | 100 | 1001.9 |
| 20260508024539 | 10 | 200 | 0.0 | 0.0 | 0.00 | 2.92 | 2.92 | 100 | 1002.0 |
| 20260508023036 | 10 | 262 | 1.6 | 8.0 | 0.00 | 2.92 | 2.92 | 100 | 1002.1 |
| 20260508021638 | 10 | 318 | 0.0 | 0.0 | 0.00 | 2.92 | 2.92 | 100 | 1002.3 |
| 20260508020035 | 10 | 250 | 0.0 | 0.0 | 0.00 | 2.92 | 2.92 | 100 | 1002.2 |
| 20260508014536 | 11 | 225 | 0.0 | 0.0 | 0.00 | 2.92 | 2.92 | 100 | 1002.3 |
| 20260508013036 | 10 | 225 | 0.0 | 0.0 | 0.00 | 2.92 | 2.92 | 100 | 1002.2 |
| 20260508011536 | 10 | 225 | 0.0 | 0.0 | 0.00 | 2.92 | 2.92 | 99 | 1002.1 |
| 20260508010033 | 10 | 225 | 0.0 | 0.0 | 0.00 | 2.92 | 2.92 | 99 | 1002.0 |
| 20260508004534 | 10 | 225 | 0.0 | 0.0 | 0.00 | 2.92 | 2.92 | 99 | 1002.0 |
| 20260508003033 | 10 | 225 | 0.0 | 0.0 | 0.00 | 2.92 | 2.92 | 99 | 1001.8 |
| 20260508001533 | 11 | 225 | 0.0 | 0.0 | 0.00 | 2.92 | 2.92 | 99 | 1002.0 |
| 20260508000033 | 11 | 232 | 0.0 | 0.0 | 0.00 | 2.92 | 2.92 | 99 | 1001.8 |
| 20260507234544 | 11 | 232 | 0.0 | 0.0 | 0.00 | 2.92 | 2.92 | 99 | 1001.7 |
| 20260507233033 | 11 | 232 | 0.0 | 0.0 | 0.00 | 2.92 | 2.92 | 99 | 1001.8 |
| 20260507231532 | 11 | 232 | 0.0 | 0.0 | 0.00 | 2.92 | 2.92 | 99 | 1001.9 |
| 20260507230031 | 11 | 212 | 0.0 | 0.0 | 0.00 | 2.92 | 2.92 | 99 | 1002.0 |
| 20260507224530 | 11 | 216 | 3.2 | 9.7 | 0.00 | 2.92 | 2.92 | 99 | 1002.1 |
| 20260507223030 | 10 | 229 | 4.8 | 12.9 | 0.00 | 2.92 | 2.92 | 99 | 1002.1 |
| 20260507221533 | 10 | 217 | 11.3 | 24.1 | 0.00 | 2.92 | 2.92 | 99 | 1002.2 |
| 20260507220036 | 11 | 217 | 11.3 | 19.3 | 0.00 | 2.92 | 2.92 | 99 | 1002.2 |
| 20260507214527 | 11 | 261 | 9.7 | 14.5 | 0.00 | 2.92 | 2.92 | 99 | 1001.8 |
| 20260507213031 | 11 | 248 | 11.3 | 25.7 | 0.00 | 2.92 | 2.92 | 99 | 1001.7 |
| 20260507211533 | 11 | 216 | 14.5 | 27.4 | 0.00 | 2.92 | 2.92 | 98 | 1002.0 |
| 20260507210030 | 11 | 207 | 14.5 | 30.6 | 0.03 | 2.92 | 2.92 | 99 | 1002.4 |
| 20260507204524 | 11 | 230 | 14.5 | 24.1 | 0.05 | 2.92 | 2.92 | 99 | 1002.1 |
| 20260507203026 | 11 | 197 | 11.3 | 19.3 | 0.08 | 2.92 | 2.92 | 99 | 1001.7 |
| 20260507201523 | 11 | 178 | 12.9 | 27.4 | 0.15 | 2.92 | 2.92 | 99 | 1001.3 |
| 20260507200022 | 11 | 152 | 8.0 | 22.5 | 0.23 | 2.90 | 2.90 | 99 | 1001.7 |
| 20260507194530 | 11 | 185 | 8.0 | 17.7 | 0.33 | 2.87 | 2.87 | 99 | 1002.7 |
| 20260507193016 | 11 | 226 | 11.3 | 22.5 | 0.58 | 2.84 | 2.84 | 99 | 1003.1 |
| 20260507191514 | 10 | 196 | 8.0 | 12.9 | 0.79 | 2.79 | 2.79 | 99 | 1003.3 |
| 20260507190019 | 10 | 167 | 6.4 | 12.9 | 0.86 | 2.67 | 2.67 | 99 | 1003.7 |
| 20260507184509 | 10 | 202 | 4.8 | 9.7 | 0.99 | 2.54 | 2.54 | 98 | 1004.1 |
| 20260507183011 | 10 | 198 | 6.4 | 17.7 | 1.12 | 2.26 | 2.26 | 98 | 1004.4 |
| 20260507181508 | 10 | 175 | 11.3 | 25.7 | 1.42 | 2.01 | 2.01 | 98 | 1004.7 |
| 20260507180006 | 11 | 227 | 9.7 | 20.9 | 1.37 | 1.78 | 1.78 | 98 | 1005.0 |
| 20260507174510 | 11 | 198 | 9.7 | 29.0 | 1.24 | 1.55 | 1.55 | 98 | 1004.9 |
| 20260507173016 | 11 | 179 | 17.7 | 33.8 | 0.89 | 1.14 | 1.14 | 98 | 1005.1 |
| 20260507171503 | 11 | 180 | 17.7 | 35.4 | 0.38 | 0.56 | 0.56 | 98 | 1004.6 |
| 20260507170005 | 12 | 148 | 17.7 | 37.0 | 0.33 | 0.41 | 0.41 | 98 | 1004.1 |
| 20260507164502 | 11 | 183 | 12.9 | 35.4 | 0.23 | 0.30 | 0.30 | 98 | 1004.5 |
| 20260507163100 | 11 | 205 | 20.9 | 32.2 | 0.20 | 0.28 | 0.28 | 98 | 1004.8 |
| 20260507161600 | 12 | 215 | 12.9 | 30.6 | 0.10 | 0.18 | 0.18 | 98 | 1005.1 |
| 20260507160054 | 12 | 179 | 12.9 | 35.4 | 0.03 | 0.10 | 0.10 | 97 | 1005.8 |
| 20260507154557 | 12 | 158 | 16.1 | 33.8 | 0.00 | 0.08 | 0.08 | 96 | 1006.1 |
| 20260507153055 | 12 | 171 | 16.1 | 35.4 | 0.00 | 0.08 | 0.08 | 96 | 1006.5 |